Вернуться в каталог

TJS-17

АктивенВоенныеGEO
NORAD 63524·PAYLOAD·🇨🇳 China

Запущен Apr 10, 2025 с Xichang Satellite Launch Center

Loading…

TLE

СвежийSource: Space-Track

Эпоха: Sep 14, 2026, 18:29 UTC

1 63524U 25073A   26257.77063919 -.00000077  00000-0  00000+0 0  9995
2 63524   1.2892  81.7383 0001132 174.4241 179.5260  1.00271575  5186

Отслеживайте TJS-17 в реальном времени с AllMySat

Download on the App Store